TimeMST,TemperatureF,Dew PointF,Humidity,Sea Level PressureIn,VisibilityMPH,Wind Direction,Wind SpeedMPH,Gust SpeedMPH,PrecipitationIn,Events,Conditions,WindDirDegrees,DateUTC
12:53 AM,33.1,18.0,54,30.04,10.0,WSW,3.5,-,N/A,,Clear,240,2013-01-18 07:53:00
1:53 AM,30.9,16.0,54,30.03,10.0,NE,4.6,-,N/A,,Clear,40,2013-01-18 08:53:00
2:53 AM,33.1,15.1,48,30.03,10.0,Calm,Calm,-,N/A,,Clear,0,2013-01-18 09:53:00
3:53 AM,28.0,16.0,61,30.02,10.0,SW,3.5,-,N/A,,Clear,220,2013-01-18 10:53:00
4:53 AM,28.9,15.1,56,30.04,10.0,Calm,Calm,-,N/A,,Clear,0,2013-01-18 11:53:00
5:53 AM,28.9,15.1,56,30.05,10.0,Variable,5.8,-,N/A,,Clear,0,2013-01-18 12:53:00
6:53 AM,28.9,14.0,54,30.05,10.0,West,6.9,-,N/A,,Clear,280,2013-01-18 13:53:00
7:53 AM,36.0,16.0,44,30.04,10.0,West,9.2,-,N/A,,Clear,270,2013-01-18 14:53:00
8:53 AM,39.0,17.1,41,30.03,10.0,Calm,Calm,-,N/A,,Clear,0,2013-01-18 15:53:00
9:53 AM,45.0,21.0,39,30.01,10.0,Calm,Calm,-,N/A,,Clear,0,2013-01-18 16:53:00
10:53 AM,51.1,14.0,23,29.96,10.0,North,4.6,-,N/A,,Clear,350,2013-01-18 17:53:00
11:53 AM,53.1,17.1,24,29.94,10.0,NNE,5.8,-,N/A,,Clear,20,2013-01-18 18:53:00
12:53 PM,54.0,18.0,24,29.91,10.0,North,4.6,-,N/A,,Clear,350,2013-01-18 19:53:00
1:53 PM,54.0,19.9,26,29.90,10.0,NE,3.5,-,N/A,,Clear,40,2013-01-18 20:53:00
2:53 PM,53.1,21.0,29,29.90,10.0,SE,4.6,-,N/A,,Clear,140,2013-01-18 21:53:00
3:53 PM,54.0,19.0,25,29.92,10.0,WNW,6.9,-,N/A,,Clear,300,2013-01-18 22:53:00
4:53 PM,45.0,18.0,34,29.94,10.0,North,6.9,-,N/A,,Mostly Cloudy,350,2013-01-18 23:53:00
5:53 PM,45.0,17.1,33,29.96,10.0,NW,6.9,-,N/A,,Clear,320,2013-01-19 00:53:00
6:53 PM,35.1,21.9,59,29.98,10.0,Calm,Calm,-,N/A,,Scattered Clouds,0,2013-01-19 01:53:00
7:53 PM,35.1,21.0,57,29.96,10.0,SW,3.5,-,N/A,,Clear,230,2013-01-19 02:53:00
8:53 PM,41.0,19.0,41,29.97,10.0,WNW,3.5,-,N/A,,Mostly Cloudy,290,2013-01-19 03:53:00
9:53 PM,42.1,19.9,41,29.96,10.0,Variable,3.5,-,N/A,,Overcast,0,2013-01-19 04:53:00
10:53 PM,41.0,19.9,43,29.99,10.0,Variable,4.6,-,N/A,,Overcast,0,2013-01-19 05:53:00
11:53 PM,35.1,19.9,54,30.01,10.0,NW,8.1,-,N/A,,Partly Cloudy,310,2013-01-19 06:53:00